Lid_Strength_Index
0 0 -0 1 0 0 1 1 1 1 0 1 1 1 1 1 0 1 1 1 1 1 1 1 2 1 1 2 3 3 3 3 4 3 2 1 0 0 0 -1 0 1 1
1 1 0 1 0 1 1 1 0 1 1 0 0 1 1 1 1 1 1 1 1 2 1 1 2 1 2 2 3 3 4 3 3 4 3 1 1 1 0 1 1 1 1
1 1 0 1 1 1 1 1 1 1 1 1 1 1 1 1 1 1 1 1 1 1 1 2 2 2 3 2 2 3 3 3 2 2 3 2 2 2 1 0 0 0 0
1 1 1 1 1 0 1 0 1 0 1 1 1 1 1 1 1 1 1 1 1 1 1 1 2 2 2 2 2 3 1 2 2 2 2 3 2 1 1 2 2 1 1
1 1 1 1 1 1 1 1 0 1 1 0 1 1 1 1 1 1 1 1 1 1 1 1 1 2 2 2 1 1 1 2 2 3 3 3 3 2 3 2 2 2 1
1 1 1 1 1 1 1 1 1 1 1 0 1 1 1 3 8 4 2 1 1 1 1 1 1 3 4 5 5 4 2 2 2 3 3 3 3 2 2 2 2 3 4
1 1 1 1 1 1 1 1 1 1 1 1 1 1 1 2 7 7 5 1 1 1 2 2 2 1 2 2 5 5 5 5 4 2 3 3 3 2 2 2 2 3 3
1 1 1 1 1 1 1 1 1 1 1 1 1 1 1 4 7 6 4 1 1 1 1 1 2 1 1 1 1 1 1 1 1 1 1 1 2 3 2 1 2 2 1
2 1 1 1 1 1 1 2 1 1 1 1 1 1 1 2 9 9 3 1 1 1 1 0 1 1 7 7 1 2 2 2 6 7 8 9 10 10 8 3 2 3 4
2 1 1 1 1 1 1 1 1 1 1 1 1 1 2 1 8 9 7 1 2 1 1 4 7 2 8 8 1 2 2 2 3 4 4 6 8 5 9 5 4 5 6
1 1 1 1 1 1 1 1 1 1 1 1 1 1 1 1 3 8 9 2 1 1 1 1 5 8 9 9 7 1 4 4 2 3 3 3 2 2 3 4 3 4 6
1 1 1 1 1 1 1 1 1 1 2 2 2 2 1 1 4 9 10 9 7 1 2 2 5 10 10 10 7 9 9 6 3 3 3 3 2 3 3 2 2 3 3
1 1 1 1 1 1 1 2 2 2 2 2 2 2 2 1 2 8 10 10 7 1 2 4 10 10 10 10 10 9 8 4 3 4 3 2 3 4 6 5 5 6 6
1 1 1 1 1 1 1 1 2 2 2 2 2 2 2 1 1 3 4 5 8 4 6 7 8 6 6 5 7 9 4 3 3 3 4 5 5 7 8 7 8 8 8
2 2 2 1 1 2 1 1 1 1 2 2 2 1 2 2 1 3 4 3 1 2 1 2 2 2 2 2 2 2 2 3 3 4 6 7 8 7 7 7 7 8 8
2 2 2 2 2 1 2 2 10 7 7 8 7 3 1 3 8 7 7 7 7 7 2 2 2 2 2 2 2 2 3 4 5 6 7 7 8 8 7 8 7 8 9
2 2 2 2 2 2 2 2 3 5 9 9 7 7 5 6 8 8 8 8 9 8 2 2 2 2 2 2 3 5 7 7 7 8 8 7 7 8 9 8 9 9 9
1 6 2 2 2 2 2 2 2 2 2 2 7 5 9 10 9 10 10 8 4 5 1 2 2 2 2 4 5 6 7 8 7 7 7 7 7 7 9 9 9 9 9
2 2 1 1 1 2 1 1 1 2 2 2 3 6 10 11 11 11 9 1 2 2 2 2 3 3 4 5 7 7 7 7 7 7 6 8 8 9 9 9 9 12 11
1 5 3 1 2 1 2 2 2 2 2 2 2 2 5 6 4 4 4 2 2 1 1 2 4 6 6 7 7 6 8 7 7 7 8 8 8 9 9 9 9 9 9
1 2 5 1 2 2 2 2 2 2 2 2 3 3 9 4 4 4 4 3 3 1 2 4 4 6 5 5 6 7 6 7 9 9 8 8 8 8 8 8 8 7 8
1 1 2 2 2 2 2 2 2 2 2 2 3 6 11 4 4 4 3 3 1 1 3 4 6 6 5 6 6 8 9 9 9 8 8 8 8 9 9 8 8 7 7
1 2 2 2 2 4 2 2 2 2 2 2 3 6 6 5 4 3 2 1 3 4 4 4 6 7 6 7 8 9 10 9 8 8 8 8 8 9 8 8 7 7 8
1 1 2 2 2 2 2 2 2 5 2 2 3 5 5 3 2 2 5 5 5 4 5 6 7 8 9 9 9 9 9 10 8 8 8 9 8 9 7 6 7 7 7
1 1 2 2 2 2 2 2 2 2 2 2 2 3 3 3 4 5 5 6 6 8 9 9 9 9 9 9 10 12 15 15 12 13 8 7 7 6 7 8 8 7 7
1 1 2 2 2 2 2 2 2 2 2 2 2 2 4 5 5 6 7 9 9 10 10 9 9 9 10 11 12 15 16 15 14 15 10 7 7 8 8 9 7 8 8